Terug naar catalogus

STARLINK-4312

ActiefCommunicatieSSO
NORAD 53065·PAYLOAD·🇺🇸 United States

Gelanceerd Jul 11, 2022 vanaf Vandenberg Space Force Base

Loading…

Volgende Passages (komende 24 uur)

TLE

VersSource: CelesTrak SupGP

Epoch: Sep 14, 2026, 20:39 UTC

1 53065C 22077Y   26257.86090278  .00090497  00000+0  28095-2 0  2570
2 53065  97.2855  72.7428 0001580  94.7724  28.8182 15.33390807    13

Volg STARLINK-4312 in realtime met AllMySat

Download on the App Store